sat.trackr.live / text

‹ back to catalog

RAPTOR3

NORAD 58958 · 2024-028D

PAYLOAD ACTIVE UNKNOWN

§ Identity

Operator
Country
US
Launch date
2024-02-14
Launch site
AFETR
Launch vehicle
Mass (kg)
RCS (m²)

External: N2YO · Heavens-Above · Gunter

§ Orbital elements

Epoch: 2026-09-22T02:34:57.320832Z

Period
105.07 min
Inclination
39.9922°
Eccentricity
0.0010046
Mean motion
13.70489293 rev/d
Perigee alt
990.4 km
Apogee alt
1,005.2 km
Semi-major
7,376.0 km
B*
2.6681e-5
RAAN
318.0678°
Arg perigee
94.5438°
Mean anomaly
265.6457°
Rev number
13,036

§ Raw data

RAPTOR31 58958U 24028D   26265.10760788 -.00000054  00000+0  26681-4 0  99952 58958  39.9922 318.0678 0010046  94.5438 265.6457 13.70489293130362

JSON: /api/v1/satellites/58958 · /tle

For live sub-satellite position, see the globe view (requires WebGL).

§ Visibility from observer

Set your observer location to see the next 7 days of passes ≥ 10°. The values pass through the URL so the page stays shareable.

No JS? Fill the form by hand. The geolocation button needs JavaScript.